Airfield :
LOGIN :

Register | Disclaimer

   EN    FR    IT 

 










Legend :    VFR   Marginal VFR   IFR   Intensive IFR   Very Intensive IFR
Visi :
Ceiling :
>= 8 km
>= 3000ft
5 to 8 km
1000 to 3000 ft
1500m to 5 km
500 to 1000 ft
800 to 1500m
200 to 500 ft
< 800m
< 200 ft
Symbols :   Thunderstorms  Fog  Heavy snow  Heavy precipitations  Wind > 20 kt
SIGMETs :     Misc.  Thunderstorms  Icing  Turbulence  Mountain Waves  Volcanic Ashes







- Airport Elevation : 42 ft
- IATA code : LMO


EGQS - Lossiemouth

CURRENT METAR :
  • 191250Z 24010KT 9999 FEW026 SCT032 BKN045 05/02 Q1020 BLU

EXPIRED METARs :
  • 191150Z 24011KT 9999 FEW016 SCT030 05/02 Q1020 BLU
  • 191050Z 25008KT 9999 FEW014 SCT018 BKN055 05/03 Q1021 WHT

TAF TAF EGQS
Valid from the 19 at 12:00 until the 20 at 06:00 UTC


191041Z 1912/2006 24008KT 9999 BKN030
TEMPO 1922/2006 7000 -RADZ BKN020
PROB30
TEMPO 2000/2006 4000 -DZ +RA BKN010 OVC016
No reported NOTAMs for that airfield.



MET'MAP, your aeronautical weather chart ! - Copyright ORBIFLY December 2007 - Disclaimer

ORBIFLY MET'MAP TEAM :

Programming & Development : Alexandra Zaïnal
Concept & Development : Baudouin d'Aumeries
Co-Development & Prog : Marc-Olivier Méhu
Technical & hardware support : Manuel Goepfert

Contact : metmap@orbifly.com




SOURCES & CREDITS :

   NOAA